Regional Weather Roundup
Issued by NWS Burlington, VT

Home | Current Version | Previous Version | Text Only | Print | Product List | Glossary On
Versions: 1 2 3 4 5 6 7 8 9 10 11 12 13 14 15 16 17 18 19 20 21 22 23 24 25 26 27 28 29 30 31 32 33 34 35 36 37 38 39 40 41 42 43 44 45 46 47 48 49 50
000
ASUS41 KBTV 061010
RWRBTV
VERMONT REGIONAL WEATHER ROUNDUP
NATIONAL WEATHER SERVICE BURLINGTON VT
600 AM EDT MON JUL 06 2015

NOTE: "FAIR" INDICATES FEW OR NO CLOUDS BELOW 12,000 FEET WITH NO
SIGNIFICANT WEATHER AND/OR OBSTRUCTIONS TO VISIBILITY.

* THESE REPORTS ARE NOT UNDER NWS QUALITY CONTROL AND/OR DO NOT
  REPORT WEATHER SUCH AS PRECIPITATION AND FOG.

VTZ001>019-061100-
_____VERMONT_____


CITY           SKY/WX    TMP DP  RH WIND       PRES   REMARKS
BURLINGTON     PTCLDY    60  57  89 CALM      30.13R
MONTPELIER     FOG       54  53  97 CALM      30.20S VSB 1/4
MORRISVILLE    FOG       56  54  93 CALM      30.18R VSB 1/4
ST. JOHNSBURY*   N/A     56  54  93 MISG      30.16R
LYNDONVILLE*   FOG       53  52  97 CALM      30.19S VSB<1/4
MIDDLEBURY*    FAIR      59  59 100 CALM      30.14S FOG
RUTLAND*       CLEAR     57  52  82 SE9       30.17S
SPRINGFIELD    FOG       55  54  96 CALM      30.18S VSB 1/4
HIGHGATE*      FAIR      58  57  96 SE3       30.13R
NEWPORT*       FAIR      54  54  99 SW5       30.17R FOG
BENNINGTON     PTCLDY    52  51  97 CALM      30.16F FOG
SUTTON*          N/A     54 N/A N/A MISG        N/A

_____LAKE CHAMPLAIN_____


CITY           SKY/WX    TMP DP  RH WIND       PRES   REMARKS

$$

NYZ007-026>031-035-052-083-061100-
_____NORTHERN NEW YORK_____


CITY           SKY/WX    TMP DP  RH WIND       PRES   REMARKS
PLATTSBURGH    CLEAR     58  57  97 CALM      30.13R FOG
SARANAC LAKE   FOG       46  45  96 CALM      30.17R VSB 1/2
MASSENA        CLEAR     56  54  93 CALM      30.13R
OGDENSBURG*    CLEAR     59  57  94 CALM      30.12R
POTSDAM*       CLEAR     55  55 100 CALM      30.14R
WATERTOWN      CLEAR     51  50  96 NE5       30.12R FOG
FT DRUM        CLEAR     57  54  89 SE8       30.13R
ALBANY         MOCLDY    58  55  90 SW3       30.16S
GLENS FALLS    PTCLDY    56  54  93 CALM      30.15S FOG

$$
NHZ002-005-011-061100-
_____NEW HAMPSHIRE_____


CITY           SKY/WX    TMP DP  RH WIND       PRES   REMARKS
LEBANON        FOG       59  58  96 CALM      30.16R VSB 1
KEENE          CLOUDY    55  52  88 CALM      30.18S VSB<1/4
MT WASHINGTON  PTCLDY    46  41  81 W21         N/A
PLYMOUTH       FOG       55  55 100 CALM      30.16S VSB<1/4
WHITEFIELD     PTCLDY    49  47  93 CALM      30.18R

$$

_____REGIONAL QUEBEC LOCATIONS_____


CITY           SKY/WX    TMP DP  RH WIND       PRES   REMARKS
MONTREAL       CLOUDY    63  59  88 W3        30.12R
QUEBEC CITY    PTCLDY    57  54  88 NW2       30.12R
SHERBROOKE     CLEAR     55  54  94 E3        30.16R

_____REGIONAL ONTARIO LOCATIONS_____


CITY           SKY/WX    TMP DP  RH WIND       PRES   REMARKS
OTTAWA         PTCLDY    59  57  94 S3        30.12R

______KEY______
VSB  - VISIBILITY IN MILES
WCI  - WIND CHILL INDEX
HX   - HEAT INDEX
$$
NNNN


USA.gov is the U.S. government's official web portal to all federal, state and local government web resources and services.